Weather History for KLBT - November, 2011

Change the Weather History Date:

Monday, November 28, 2011

  Actual Average Record
Temperature  
Mean Temperature 62 °F 51 °F  
Max Temperature 69 °F 63 °F 77 °F (2001)
Min Temperature 55 °F 39 °F 24 °F (2013)
Degree Days  
Heating Degree Days 3 15  
Month to date heating degree days 256 305  
Since 1 July heating degree days 430 437  
Cooling Degree Days 0 0  
Month to date cooling degree days 18 10  
Year to date cooling degree days 2315 1904  
Growing Degree Days 13 (Base 50)    
Moisture  
Dew Point 61 °F    
Average Humidity 84    
Maximum Humidity 100    
Minimum Humidity 67    
Precipitation  
Precipitation 0.55 in 0.10 in 0.55 in (2011)
Month to date precipitation 1.95 2.68  
Year to date precipitation 39.35 40.44  
Sea Level Pressure  
Sea Level Pressure 29.93 in    
Wind  
Wind Speed 10 mph (SE)    
Max Wind Speed 30 mph    
Max Gust Speed 36 mph    
Visibility 7 miles    
Events Rain    
T = Trace of Precipitation, MM = Missing Value Source: NWS Daily Summary

Daily Weather History Graph

Daily Weather History Graph

Search for Another Location

Airport or City:

Trip Planner

Search our weather history database for the weather conditions in past years. The results will help you decide how hot, cold, wet, or windy it might be!

Date:

Astronomy

Nov. 28, 2011 Rise Set
Actual Time 7:01 AM EST 5:06 PM EST
Civil Twilight 6:34 AM EST 5:33 PM EST
Nautical Twilight 6:03 AM EST 6:04 PM EST
Astronomical Twilight 5:33 AM EST 6:34 PM EST
Moon 10:11 AM EST (11/28) 8:48 PM EST (11/28)
Length of Visible Light 10h 58m
Length of Day
10h 04m
Waxing Crescent, 15% of the Moon is Illuminated
Nov 28
Waxing Crescent
Dec 2
First Quarter
Dec 10
Full
Dec 17
Last Quarter
Dec 24
New

Hourly Weather History & Observations

Time (EST) Temp. Dew Point Humidity Pressure Visibility Wind Dir Wind Speed Gust Speed Precip Events Conditions
12:54 AM 59.0 °F 53.1 °F 81% 30.06 in 10.0 mi SE 5.8 mph - N/A   Overcast
1:54 AM 59.0 °F 52.0 °F 78% 30.05 in 10.0 mi ESE 6.9 mph - N/A   Overcast
2:54 AM 63.0 °F 52.0 °F 67% 30.03 in 10.0 mi SE 6.9 mph - N/A   Overcast
3:54 AM 63.0 °F 52.0 °F 67% 30.02 in 10.0 mi SE 6.9 mph - N/A   Overcast
4:54 AM 61.0 °F 53.1 °F 75% 30.02 in 10.0 mi SE 5.8 mph - N/A   Overcast
5:54 AM 62.1 °F 59.0 °F 90% 30.02 in 10.0 mi SE 9.2 mph - N/A   Overcast
6:54 AM 60.1 °F 57.9 °F 93% 30.02 in 10.0 mi East 4.6 mph - N/A   Mostly Cloudy
7:54 AM 61.0 °F 59.0 °F 93% 30.03 in 10.0 mi Calm Calm - N/A   Overcast
8:54 AM 62.1 °F 59.0 °F 90% 30.04 in 10.0 mi Calm Calm - N/A   Overcast
9:54 AM 64.9 °F 59.0 °F 81% 30.04 in 10.0 mi ESE 9.2 mph - N/A   Overcast
10:54 AM 66.9 °F 61.0 °F 81% 30.01 in 10.0 mi ESE 17.3 mph 23.0 mph N/A   Overcast
11:54 AM 69.1 °F 62.1 °F 78% 29.99 in 10.0 mi ESE 12.7 mph - N/A   Overcast
12:02 PM 69.8 °F 62.6 °F 78% 29.99 in 10.0 mi SE 13.8 mph - N/A   Overcast
12:54 PM 68.0 °F 63.0 °F 84% 29.97 in 10.0 mi ESE 15.0 mph 20.7 mph N/A   Overcast
1:18 PM 68.0 °F 64.4 °F 88% 29.96 in 1.8 mi ESE 13.8 mph - 0.00 in Rain Light Rain
1:25 PM 66.2 °F 64.4 °F 94% 29.96 in 1.5 mi SE 10.4 mph - 0.00 in Rain Light Rain
1:27 PM 66.2 °F 64.4 °F 94% 29.96 in 2.5 mi SE 9.2 mph - 0.00 in Rain Light Rain
1:34 PM 66.2 °F 64.4 °F 94% 29.95 in 9.0 mi SE 6.9 mph - 0.00 in   Overcast
1:45 PM 66.2 °F 64.4 °F 94% 29.95 in 10.0 mi North - - 0.00 in   Overcast
2:13 PM 66.2 °F 64.4 °F 94% 29.93 in 4.0 mi SE 13.8 mph 19.6 mph 0.00 in   Overcast
2:24 PM 66.2 °F 64.4 °F 94% 29.93 in 2.5 mi SE 13.8 mph 20.7 mph 0.00 in   Overcast
2:30 PM 66.2 °F 64.4 °F 94% 29.93 in 3.0 mi SE 15.0 mph 20.7 mph 0.00 in   Overcast
2:40 PM 66.2 °F 64.4 °F 94% 29.93 in 10.0 mi SE 11.5 mph - 0.00 in   Overcast
2:54 PM 66.9 °F 64.9 °F 93% 29.92 in 8.0 mi SE 15.0 mph 21.9 mph 0.00 in   Overcast
3:04 PM 66.2 °F 64.4 °F 94% 29.92 in 3.0 mi SE 15.0 mph - N/A   Overcast
3:16 PM 66.2 °F 64.4 °F 94% 29.92 in 2.0 mi SE 12.7 mph 20.7 mph N/A   Overcast
3:29 PM 66.2 °F 64.4 °F 94% 29.92 in 8.0 mi ESE 11.5 mph - 0.00 in   Overcast
3:54 PM 66.0 °F 64.9 °F 96% 29.91 in 9.0 mi SE 12.7 mph - 0.00 in   Overcast
4:54 PM 66.0 °F 64.0 °F 93% 29.89 in 10.0 mi ESE 11.5 mph - N/A   Overcast
5:19 PM 64.4 °F 64.4 °F 100% 29.89 in 10.0 mi ESE 11.5 mph - N/A   Overcast
5:54 PM 64.9 °F 64.0 °F 97% 29.88 in 10.0 mi ESE 10.4 mph - N/A   Mostly Cloudy
6:54 PM 66.0 °F 63.0 °F 90% 29.87 in 10.0 mi SE 11.5 mph - N/A   Scattered Clouds
7:54 PM 66.0 °F 63.0 °F 90% 29.86 in 10.0 mi ESE 11.5 mph - N/A   Overcast
9:51 PM 66.2 °F 64.4 °F 94% 29.81 in 10.0 mi SE 10.4 mph - 0.01 in   Overcast
9:54 PM 66.9 °F 64.0 °F 90% 29.81 in 10.0 mi SE 12.7 mph - 0.01 in   Overcast
10:51 PM 68.0 °F 64.4 °F 88% 29.79 in 10.0 mi SE 16.1 mph 26.5 mph 0.02 in   Overcast
10:54 PM 68.0 °F 64.9 °F 90% 29.79 in 10.0 mi SE 15.0 mph 26.5 mph 0.02 in   Overcast
11:26 PM 68.0 °F 64.4 °F 88% 29.78 in 2.5 mi SSE 13.8 mph 21.9 mph 0.05 in Rain Rain
11:31 PM 62.6 °F 60.8 °F 94% 29.82 in 1.2 mi WSW 24.2 mph 35.7 mph 0.19 in Rain Rain
11:33 PM 59.0 °F 57.2 °F 94% 29.83 in 1.0 mi WSW 18.4 mph 35.7 mph 0.22 in Rain Heavy Rain
11:40 PM 57.2 °F 55.4 °F 94% 29.81 in 1.0 mi West 15.0 mph - 0.28 in Rain Heavy Rain
11:46 PM 57.2 °F 55.4 °F 94% 29.82 in 1.8 mi West 15.0 mph 23.0 mph 0.35 in Rain Heavy Rain
11:49 PM 55.4 °F 55.4 °F 100% 29.82 in 1.5 mi West 15.0 mph 23.0 mph 0.38 in Rain Heavy Rain